AAL136 KLAX-EGLL

Flight info

Callsign AAL136
Flight time N/A
Altitude 35000
Route DOTSS2 CNERY DCT BLH DCT WOBUG/N0483F370 DCT EWM DCT SUMMY DCT BGS J66 FUZ DCT TXK DCT GAGLE DCT RUTTH DCT LORNN DCT WILUM DCT DIXXY DCT HAFNR DCT AGARD/N0483F390 DCT CYN DCT DUNEE DCT ACK DCT KANNI N97B SUPRY/M083F390 DCT 46N050W 48N040W 50N030W 52N020W DCT LIMRI/N0480F390 DCT XETBO/N0486F410 DCT UNBEG DCT LIFFY UL975 MALUD Q38 NUGRA
Aircraft B772/H-SDE1E3FGHIJ3J5M1P2RWXYZ/LB1D1

Departure

Time 2026-05-07 23:34
Airport Los Angeles International Airport (KLAX)

Arrival

Time N/A
Airport London Heathrow Airport (EGLL)
Time Latitude Longitude Altitude Speed Heading
2026-05-07 23:00 33.94105 -118.40746 106 ft 0 kts 69°
2026-05-07 23:20 33.94104 -118.40748 97 ft 2 kts 69°
2026-05-07 23:20 33.94095 -118.40777 97 ft 4 kts 69°
2026-05-07 23:20 33.94087 -118.40802 95 ft 4 kts 72°
2026-05-07 23:21 33.94088 -118.40827 95 ft 4 kts 139°
2026-05-07 23:21 33.94105 -118.40838 98 ft 2 kts 173°
2026-05-07 23:21 33.94081 -118.40834 99 ft 4 kts 173°
2026-05-07 23:21 33.94054 -118.40830 98 ft 4 kts 173°
2026-05-07 23:22 33.94027 -118.40826 99 ft 4 kts 173°
2026-05-07 23:22 33.94003 -118.40823 98 ft 1 kts 173°
2026-05-07 23:24 33.93991 -118.40821 99 ft 4 kts 173°
2026-05-07 23:25 33.93949 -118.40815 98 ft 8 kts 173°
2026-05-07 23:25 33.93895 -118.40785 99 ft 9 kts 137°
2026-05-07 23:25 33.93847 -118.40742 99 ft 9 kts 152°
2026-05-07 23:25 33.93811 -118.40688 102 ft 9 kts 100°
2026-05-07 23:26 33.93816 -118.40614 99 ft 10 kts 82°
2026-05-07 23:26 33.93826 -118.40509 102 ft 14 kts 83°
2026-05-07 23:26 33.93838 -118.40392 103 ft 14 kts 83°
2026-05-07 23:26 33.93850 -118.40274 100 ft 14 kts 83°
2026-05-07 23:27 33.93875 -118.40033 101 ft 18 kts 83°
2026-05-07 23:27 33.93890 -118.39879 100 ft 19 kts 83°
2026-05-07 23:27 33.93907 -118.39722 99 ft 19 kts 83°
2026-05-07 23:28 33.93922 -118.39566 99 ft 19 kts 83°
2026-05-07 23:28 33.93939 -118.39410 101 ft 19 kts 83°
2026-05-07 23:28 33.93955 -118.39253 99 ft 19 kts 83°
2026-05-07 23:28 33.93971 -118.39097 98 ft 19 kts 83°
2026-05-07 23:29 33.93986 -118.38941 98 ft 19 kts 83°
2026-05-07 23:29 33.94002 -118.38785 99 ft 19 kts 82°
2026-05-07 23:29 33.94019 -118.38628 100 ft 19 kts 83°
2026-05-07 23:29 33.94035 -118.38474 102 ft 19 kts 83°
2026-05-07 23:30 33.94050 -118.38318 101 ft 19 kts 83°
2026-05-07 23:30 33.94066 -118.38166 98 ft 14 kts 83°
2026-05-07 23:30 33.94075 -118.38084 97 ft 9 kts 83°
2026-05-07 23:30 33.94078 -118.38041 97 ft 3 kts 91°
2026-05-07 23:31 33.94078 -118.38039 97 ft 0 kts 94°
2026-05-07 23:31 33.94075 -118.38027 97 ft 4 kts 109°
2026-05-07 23:31 33.94041 -118.38003 99 ft 6 kts 166°
2026-05-07 23:31 33.94000 -118.38003 99 ft 6 kts 203°
2026-05-07 23:32 33.93983 -118.38041 101 ft 5 kts 257°
2026-05-07 23:32 33.93981 -118.38058 100 ft 0 kts 262°
2026-05-07 23:33 33.93979 -118.38070 99 ft 9 kts 262°
2026-05-07 23:33 33.93949 -118.38356 103 ft 67 kts 263°
2026-05-07 23:34 33.93863 -118.39188 102 ft 131 kts 263°
2026-05-07 23:34 33.93731 -118.40470 308 ft 165 kts 263°
2026-05-07 23:34 33.93582 -118.41860 1016 ft 167 kts 262°
2026-05-07 23:34 33.93443 -118.43263 1808 ft 172 kts 263°
2026-05-07 23:35 33.93297 -118.44723 2288 ft 182 kts 264°
2026-05-07 23:35 33.93124 -118.46306 2486 ft 196 kts 257°
2026-05-07 23:35 33.92385 -118.47750 2552 ft 212 kts 225°
2026-05-07 23:35 33.91285 -118.48953 2796 ft 223 kts 224°
2026-05-07 23:36 33.90183 -118.50308 3063 ft 232 kts 232°
2026-05-07 23:36 33.89097 -118.51853 3272 ft 250 kts 232°
2026-05-07 23:36 33.87957 -118.53489 3674 ft 258 kts 232°
2026-05-07 23:36 33.86746 -118.55097 4147 ft 262 kts 221°
2026-05-07 23:37 33.85052 -118.55979 4547 ft 275 kts 188°
2026-05-07 23:37 33.83137 -118.55745 5077 ft 278 kts 169°
2026-05-07 23:37 33.81231 -118.55216 5512 ft 281 kts 173°
2026-05-07 23:37 33.79302 -118.55277 5919 ft 278 kts 200°
2026-05-07 23:38 33.77639 -118.56381 6467 ft 273 kts 225°
2026-05-07 23:38 33.76354 -118.58019 6872 ft 275 kts 231°
2026-05-07 23:38 33.75001 -118.59647 7261 ft 279 kts 216°
2026-05-07 23:38 33.73192 -118.60577 7644 ft 287 kts 196°
2026-05-07 23:39 33.71221 -118.61084 8086 ft 292 kts 193°
2026-05-07 23:39 33.69205 -118.61526 8582 ft 295 kts 191°
2026-05-07 23:39 33.67177 -118.61985 9109 ft 296 kts 191°
2026-05-07 23:39 33.65135 -118.62459 9514 ft 301 kts 189°
2026-05-07 23:40 33.63043 -118.62495 9824 ft 304 kts 166°
2026-05-07 23:40 33.61127 -118.61472 10232 ft 305 kts 141°
2026-05-07 23:40 33.59698 -118.59594 10359 ft 317 kts 117°
2026-05-07 23:40 33.58978 -118.57052 10496 ft 330 kts 95°
2026-05-07 23:41 33.59104 -118.54260 10617 ft 342 kts 75°
2026-05-07 23:41 33.59823 -118.51482 10760 ft 357 kts 70°
2026-05-07 23:41 33.60626 -118.48604 11129 ft 369 kts 70°
2026-05-07 23:41 33.61442 -118.45657 11757 ft 374 kts 71°
2026-05-07 23:42 33.62248 -118.42679 12499 ft 377 kts 71°
2026-05-07 23:42 33.63044 -118.39680 13342 ft 378 kts 71°
2026-05-07 23:42 33.63841 -118.36652 14042 ft 383 kts 72°
2026-05-07 23:42 33.64542 -118.33571 14646 ft 383 kts 80°
2026-05-07 23:43 33.64662 -118.30370 15148 ft 392 kts 90°
2026-05-07 23:43 33.64592 -118.27084 15824 ft 395 kts 90°
2026-05-07 23:43 33.64535 -118.23773 16582 ft 398 kts 90°
2026-05-07 23:43 33.64497 -118.20440 17306 ft 402 kts 89°
2026-05-07 23:44 33.64477 -118.17061 17967 ft 407 kts 89°
2026-05-07 23:44 33.64467 -118.13643 18610 ft 411 kts 89°
2026-05-07 23:44 33.64462 -118.10241 19233 ft 415 kts 89°
2026-05-07 23:44 33.64460 -118.06749 19864 ft 419 kts 89°
2026-05-07 23:45 33.64458 -118.03233 20492 ft 423 kts 88°
2026-05-07 23:45 33.64454 -117.99683 21107 ft 427 kts 88°
2026-05-07 23:45 33.64449 -117.96103 21693 ft 432 kts 88°
2026-05-07 23:45 33.64443 -117.92482 22270 ft 436 kts 88°
2026-05-07 23:46 33.64436 -117.88825 22830 ft 440 kts 88°
2026-05-07 23:46 33.64427 -117.85138 23368 ft 444 kts 88°
2026-05-07 23:46 33.64421 -117.82673 23702 ft 447 kts 88°
2026-05-07 23:46 33.64183 -117.77714 24255 ft 453 kts 99°
2026-05-07 23:47 33.63339 -117.74041 24672 ft 458 kts 105°
2026-05-07 23:47 33.62671 -117.71577 24964 ft 460 kts 106°
2026-05-07 23:47 33.61683 -117.67959 25385 ft 463 kts 105°
2026-05-07 23:47 33.60704 -117.64280 25817 ft 465 kts 105°
2026-05-07 23:48 33.59747 -117.60565 26230 ft 467 kts 104°
2026-05-07 23:48 33.58803 -117.56810 26614 ft 470 kts 104°
2026-05-07 23:48 33.57870 -117.53044 26991 ft 473 kts 104°
2026-05-07 23:48 33.56934 -117.49254 27356 ft 475 kts 104°
2026-05-07 23:49 33.55992 -117.45442 27713 ft 478 kts 104°
2026-05-07 23:49 33.55041 -117.41605 28063 ft 480 kts 104°
2026-05-07 23:49 33.54101 -117.37822 28397 ft 482 kts 104°
2026-05-07 23:49 33.53138 -117.33961 28690 ft 485 kts 104°
2026-05-07 23:50 33.52170 -117.30077 28965 ft 487 kts 104°
2026-05-07 23:50 33.51195 -117.26178 29248 ft 489 kts 104°
2026-05-07 23:50 33.50399 -117.22676 29480 ft 489 kts 98°
2026-05-07 23:50 33.50076 -117.18629 29667 ft 487 kts 88°
2026-05-07 23:51 33.50087 -117.14555 29919 ft 487 kts 86°
2026-05-07 23:51 33.50143 -117.10491 30159 ft 488 kts 86°
2026-05-07 23:51 33.50181 -117.06498 30430 ft 487 kts 87°
2026-05-07 23:51 33.50184 -117.02579 30726 ft 486 kts 88°
2026-05-07 23:52 33.50155 -116.98537 31030 ft 485 kts 88°
2026-05-07 23:52 33.50111 -116.94911 31286 ft 484 kts 88°
2026-05-07 23:52 33.50052 -116.91020 31541 ft 483 kts 89°
2026-05-07 23:52 33.49985 -116.87001 31806 ft 483 kts 89°
2026-05-07 23:53 33.49918 -116.82982 32104 ft 481 kts 88°
2026-05-07 23:53 33.49851 -116.78970 32404 ft 479 kts 88°
2026-05-07 23:53 33.49785 -116.74979 32688 ft 478 kts 88°
2026-05-07 23:53 33.49721 -116.71048 32955 ft 477 kts 88°
2026-05-07 23:54 33.49654 -116.67040 33216 ft 477 kts 88°
2026-05-07 23:54 33.49587 -116.63070 33485 ft 476 kts 88°
2026-05-07 23:54 33.49523 -116.59378 33715 ft 475 kts 88°
2026-05-07 23:54 33.49453 -116.55402 33998 ft 474 kts 88°
2026-05-07 23:55 33.49383 -116.51531 34168 ft 475 kts 88°
2026-05-07 23:55 33.49312 -116.47566 34268 ft 477 kts 88°
2026-05-07 23:55 33.49238 -116.43599 34479 ft 476 kts 88°
2026-05-07 23:55 33.49168 -116.39683 34711 ft 474 kts 88°
2026-05-07 23:56 33.49108 -116.35725 34823 ft 476 kts 88°
2026-05-07 23:56 33.49054 -116.31739 34867 ft 478 kts 88°
2026-05-07 23:56 33.48937 -116.23788 34847 ft 475 kts 88°
2026-05-07 23:57 33.48813 -116.15909 34850 ft 472 kts 88°
2026-05-07 23:57 33.48684 -116.08051 34832 ft 471 kts 88°
2026-05-07 23:58 33.49244 -116.00375 34826 ft 459 kts 68°
2026-05-07 23:58 33.51520 -115.93221 34871 ft 461 kts 67°
2026-05-07 23:59 33.53726 -115.85973 34850 ft 463 kts 68°
2026-05-07 23:59 33.55861 -115.78670 34856 ft 464 kts 68°
2026-05-08 00:00 33.57982 -115.71361 34869 ft 463 kts 68°
2026-05-08 00:00 33.60101 -115.64066 34864 ft 462 kts 68°
2026-05-08 00:01 33.61908 -115.56677 34849 ft 465 kts 83°
2026-05-08 00:01 33.61683 -115.48923 34871 ft 466 kts 90°
2026-05-08 00:02 33.61395 -115.41172 34878 ft 468 kts 89°
2026-05-08 00:02 33.61179 -115.33328 34866 ft 471 kts 88°
2026-05-08 00:03 33.60982 -115.25471 34870 ft 471 kts 88°
2026-05-08 00:03 33.60780 -115.17654 34857 ft 470 kts 88°
2026-05-08 00:04 33.60568 -115.09848 34852 ft 468 kts 88°
2026-05-08 00:04 33.60357 -115.02211 34858 ft 466 kts 88°
2026-05-08 00:05 33.60137 -114.94440 34861 ft 465 kts 88°
2026-05-08 00:05 33.59913 -114.86683 34851 ft 465 kts 88°
2026-05-08 00:06 33.59702 -114.79487 34851 ft 465 kts 88°
2026-05-08 00:06 33.59045 -114.71746 34852 ft 469 kts 96°
2026-05-08 00:07 33.57870 -114.64034 34852 ft 470 kts 96°
2026-05-08 00:07 33.56695 -114.56311 34853 ft 471 kts 96°
2026-05-08 00:08 33.55534 -114.48566 34856 ft 472 kts 96°
2026-05-08 00:08 33.54388 -114.40874 34851 ft 472 kts 96°
2026-05-08 00:09 33.53230 -114.33122 34868 ft 471 kts 96°
2026-05-08 00:09 33.52132 -114.25814 34875 ft 470 kts 96°
2026-05-08 00:10 33.50984 -114.18200 34865 ft 470 kts 96°
2026-05-08 00:10 33.49815 -114.10485 34871 ft 470 kts 96°
2026-05-08 00:11 33.48642 -114.02778 34883 ft 470 kts 96°
2026-05-08 00:11 33.47715 -113.96708 34882 ft 470 kts 96°
2026-05-08 00:12 33.46539 -113.89047 34903 ft 470 kts 96°
2026-05-08 00:12 33.45354 -113.81353 34930 ft 470 kts 96°
2026-05-08 00:13 33.44165 -113.73666 34956 ft 470 kts 96°
2026-05-08 00:13 33.42970 -113.65974 34959 ft 470 kts 96°
2026-05-08 00:14 33.41770 -113.58285 34959 ft 469 kts 96°
2026-05-08 00:14 33.40567 -113.50603 34945 ft 469 kts 96°
2026-05-08 00:15 33.39474 -113.43653 34843 ft 469 kts 96°
2026-05-08 00:15 33.38275 -113.36063 34855 ft 468 kts 96°
2026-05-08 00:16 33.37060 -113.28405 34835 ft 467 kts 96°
2026-05-08 00:16 33.35846 -113.20784 34838 ft 466 kts 96°
2026-05-08 00:17 33.34637 -113.13221 34838 ft 466 kts 96°
2026-05-08 00:17 33.33415 -113.05610 34846 ft 465 kts 96°
2026-05-08 00:18 33.32293 -112.98648 34853 ft 465 kts 96°
2026-05-08 00:18 33.31065 -112.91055 34856 ft 464 kts 96°
2026-05-08 00:19 33.29833 -112.83469 34865 ft 465 kts 96°
2026-05-08 00:19 33.28603 -112.75926 34875 ft 465 kts 96°
2026-05-08 00:20 33.27361 -112.68340 34877 ft 465 kts 96°
2026-05-08 00:20 33.26113 -112.60749 34863 ft 465 kts 96°
2026-05-08 00:21 33.24859 -112.53155 34846 ft 465 kts 96°
2026-05-08 00:21 33.23609 -112.45613 34863 ft 465 kts 96°
2026-05-08 00:22 33.22348 -112.38035 34852 ft 465 kts 96°
2026-05-08 00:22 33.21085 -112.30468 34847 ft 464 kts 97°
2026-05-08 00:23 33.19816 -112.22900 34839 ft 464 kts 97°
2026-05-08 00:23 33.18538 -112.15330 34839 ft 465 kts 96°
2026-05-08 00:24 33.17270 -112.07806 34847 ft 465 kts 96°
2026-05-08 00:24 33.15989 -112.00252 34854 ft 464 kts 97°
2026-05-08 00:25 33.14704 -111.92713 34857 ft 463 kts 97°
2026-05-08 00:25 33.13418 -111.85189 34855 ft 462 kts 97°
2026-05-08 00:26 33.12129 -111.77671 34874 ft 462 kts 97°
2026-05-08 00:26 33.10833 -111.70152 34859 ft 462 kts 97°
2026-05-08 00:27 33.09537 -111.62654 34858 ft 462 kts 97°
2026-05-08 00:27 33.08244 -111.55205 34819 ft 461 kts 97°
2026-05-08 00:28 33.06936 -111.47697 34825 ft 462 kts 97°
2026-05-08 00:28 33.05626 -111.40199 34816 ft 462 kts 97°
2026-05-08 00:29 33.04310 -111.32699 34826 ft 462 kts 97°
2026-05-08 00:29 33.02997 -111.25240 34819 ft 462 kts 97°
2026-05-08 00:30 33.01671 -111.17740 34819 ft 463 kts 97°
2026-05-08 00:30 33.00466 -111.10951 34832 ft 463 kts 97°
2026-05-08 00:31 32.99128 -111.03436 34830 ft 463 kts 97°
2026-05-08 00:31 32.97784 -110.95913 34836 ft 464 kts 97°
2026-05-08 00:32 32.96435 -110.88393 34830 ft 464 kts 97°
2026-05-08 00:32 32.95089 -110.80913 34835 ft 464 kts 97°
2026-05-08 00:33 32.93730 -110.73381 34841 ft 467 kts 99°
2026-05-08 00:33 32.92358 -110.65809 34835 ft 469 kts 99°
2026-05-08 00:34 32.90974 -110.58202 34836 ft 471 kts 99°
2026-05-08 00:34 32.89577 -110.50558 35127 ft 472 kts 99°
2026-05-08 00:35 32.88878 -110.46748 35381 ft 471 kts 100°
2026-05-08 00:35 32.88181 -110.42945 35611 ft 470 kts 101°
2026-05-08 00:35 32.87483 -110.39150 35810 ft 470 kts 101°
2026-05-08 00:35 32.86784 -110.35351 35954 ft 471 kts 101°
2026-05-08 00:36 32.86079 -110.31530 36097 ft 472 kts 101°
2026-05-08 00:36 32.85372 -110.27703 36268 ft 473 kts 101°
2026-05-08 00:36 32.84663 -110.23877 36433 ft 473 kts 101°
2026-05-08 00:36 32.83964 -110.20107 36591 ft 474 kts 101°
2026-05-08 00:37 32.83250 -110.16263 36721 ft 475 kts 102°
2026-05-08 00:37 32.82534 -110.12414 36765 ft 476 kts 102°
2026-05-08 00:38 32.80368 -110.00817 36841 ft 482 kts 103°
2026-05-08 00:38 32.78901 -109.93005 36848 ft 486 kts 103°
2026-05-08 00:39 32.77421 -109.85145 36847 ft 488 kts 103°
2026-05-08 00:39 32.75943 -109.77324 36808 ft 486 kts 103°
2026-05-08 00:40 32.74463 -109.69514 36827 ft 483 kts 103°
2026-05-08 00:40 32.72983 -109.61744 36922 ft 483 kts 103°
2026-05-08 00:41 32.71498 -109.53969 36906 ft 483 kts 104°
2026-05-08 00:41 32.70014 -109.46233 36884 ft 483 kts 104°
2026-05-08 00:42 32.68517 -109.38447 36862 ft 484 kts 104°
2026-05-08 00:42 32.67011 -109.30647 36830 ft 487 kts 105°
2026-05-08 00:43 32.65487 -109.22785 36827 ft 489 kts 105°
2026-05-08 00:43 32.63953 -109.14897 36832 ft 492 kts 105°
2026-05-08 00:44 32.62408 -109.06975 36820 ft 494 kts 106°
2026-05-08 00:44 32.60860 -108.99072 36833 ft 495 kts 106°
2026-05-08 00:45 32.59296 -108.91105 36834 ft 497 kts 106°
2026-05-08 00:45 32.57612 -108.83166 36851 ft 496 kts 108°
2026-05-08 00:46 32.55737 -108.75278 36825 ft 496 kts 110°
2026-05-08 00:46 32.53857 -108.67413 36848 ft 496 kts 109°
2026-05-08 00:47 32.51997 -108.59519 36849 ft 498 kts 110°
2026-05-08 00:47 32.50143 -108.51604 36881 ft 499 kts 110°
2026-05-08 00:48 32.48295 -108.43726 36915 ft 500 kts 110°
2026-05-08 00:48 32.46425 -108.35782 36948 ft 501 kts 110°
2026-05-08 00:49 32.44544 -108.27825 36974 ft 502 kts 110°
2026-05-08 00:49 32.42654 -108.19857 36976 ft 503 kts 110°
2026-05-08 00:50 32.40761 -108.11899 36958 ft 504 kts 110°
2026-05-08 00:50 32.38866 -108.03954 36927 ft 505 kts 110°
2026-05-08 00:51 32.36953 -107.95957 36868 ft 505 kts 111°
2026-05-08 00:51 32.35027 -107.87934 36846 ft 506 kts 111°
2026-05-08 00:52 32.33109 -107.79970 37014 ft 507 kts 111°
2026-05-08 00:52 32.31171 -107.71947 37003 ft 507 kts 112°
2026-05-08 00:53 32.29227 -107.63922 37020 ft 508 kts 112°
2026-05-08 00:53 32.27277 -107.55897 36989 ft 508 kts 112°
2026-05-08 00:54 32.25321 -107.47868 36945 ft 509 kts 112°
2026-05-08 00:54 32.23353 -107.39817 36898 ft 509 kts 112°
2026-05-08 00:55 32.21382 -107.31779 36866 ft 509 kts 113°
2026-05-08 00:55 32.19414 -107.23778 36892 ft 510 kts 113°
2026-05-08 00:56 32.17428 -107.15729 36939 ft 511 kts 113°
2026-05-08 00:56 32.15434 -107.07669 36972 ft 511 kts 113°
2026-05-08 00:57 32.13446 -106.99656 36970 ft 511 kts 113°
2026-05-08 00:57 32.11442 -106.91604 36977 ft 511 kts 113°
2026-05-08 00:58 32.09426 -106.83528 36921 ft 512 kts 113°
2026-05-08 00:58 32.07408 -106.75468 36947 ft 512 kts 113°
2026-05-08 00:59 32.05399 -106.67467 36939 ft 513 kts 113°
2026-05-08 00:59 32.03367 -106.59401 36942 ft 514 kts 114°
2026-05-08 01:00 32.01665 -106.52665 36942 ft 516 kts 114°
2026-05-08 01:00 31.99278 -106.43232 36962 ft 518 kts 114°
2026-05-08 01:01 31.97548 -106.36419 36977 ft 519 kts 114°
2026-05-08 01:01 31.95888 -106.28150 36957 ft 530 kts 103°
2026-05-08 01:02 31.95566 -106.19392 36945 ft 542 kts 91°
2026-05-08 01:02 31.96204 -106.10517 36919 ft 544 kts 90°
2026-05-08 01:03 31.96863 -106.01631 36895 ft 544 kts 90°
2026-05-08 01:03 31.97444 -105.92795 36863 ft 544 kts 91°
2026-05-08 01:04 31.97999 -105.83904 36886 ft 543 kts 91°
2026-05-08 01:04 31.98556 -105.75017 36893 ft 543 kts 91°
2026-05-08 01:05 31.99344 -105.66146 36901 ft 545 kts 88°
2026-05-08 01:05 32.00353 -105.57276 36890 ft 547 kts 87°
2026-05-08 01:06 32.01365 -105.48427 36892 ft 548 kts 88°
2026-05-08 01:06 32.02353 -105.39495 36897 ft 549 kts 88°
2026-05-08 01:07 32.03320 -105.30543 36899 ft 551 kts 88°
2026-05-08 01:07 32.04274 -105.21620 36891 ft 551 kts 88°
2026-05-08 01:08 32.05230 -105.12649 36896 ft 552 kts 88°
2026-05-08 01:08 32.06184 -105.03652 36912 ft 552 kts 88°
2026-05-08 01:09 32.07131 -104.94654 36914 ft 552 kts 88°
2026-05-08 01:09 32.08069 -104.85690 36915 ft 550 kts 88°